Regional Weather Roundup
Issued by NWS Binghamton, NY

Home | Current Version | Previous Version | Text Only | Print | Product List | Glossary On
Versions: 1 2 3 4 5 6 7 8 9 10 11 12 13 14 15 16 17 18 19 20 21 22 23 24 25 26 27 28 29 30 31 32 33 34 35 36 37 38 39 40 41 42 43 44 45 46 47 48 49 50
000
ASUS41 KBGM 211710
RWRBGM

REGIONAL WEATHER ROUNDUP
NATIONAL WEATHER SERVICE BINGHAMTON NY
100 PM EDT TUE MAY 21 2019

Note: "fair" indicates few or no clouds below 12,000 feet with no
significant weather and/or obstructions to visibility.

* = Station(s) that does not report precipitation, such as rain,
snow, etc, also no thunder or fog.

NYZ009-015>018-022>025-036-037-044>046-055>057-062-211800
...Central New York...

CITY           SKY/WX    TMP DP  RH WIND       PRES   REMARKS
Binghamton     FAIR      56  39  53 NW16G25   30.02S
Dansville      FAIR      61  40  45 NW17      30.10S
Elmira         FAIR      63  40  42 N14G24    30.05S
Endicott       MOSUNNY   59  37  44 NW14G21   30.03S
Ithaca         FAIR      57  41  55 NW16G25   30.06F
Hamilton       PTSUNNY   55  37  50 NW14G22   30.03S
Hornell        MOSUNNY   59  39  47 NW17      30.12S
Monticello     FAIR      60  38  43 NW18G28   29.97F
Norwich        SUNNY     57  37  47 N10G28    30.01S
Oneonta        SUNNY     54  37  54 N10G22    29.99S
Penn Yan       FAIR      60  39  45 NW16G26   30.08S
Rome           PTSUNNY   57  40  52 W20G25    30.03S
Seneca Falls   MOSUNNY   57  39  51 NW14G22   30.09R
Sidney         SUNNY     59  39  47 NW13G22   30.01S
Skaneateles    FAIR      55  41  58 N8G16     30.07S
Syracuse       PTSUNNY   58  41  53 NW17G26   30.06S
$$

PAZ038>040-043-044-047-048-072-211800
...Northeast Pennsylvania...

CITY           SKY/WX    TMP DP  RH WIND       PRES   REMARKS
Hazleton       FAIR      61  36  39 NW10G21   30.04S
Scranton       FAIR      64  40  41 NW14G24   30.02S
Towanda        MOSUNNY   63  37  39 NW9G18    30.06R
$$
&&
KEY
WCI = Wind Chill Index
VSB = Visibility
HX  = Heat Index
$$



USA.gov is the U.S. government's official web portal to all federal, state and local government web resources and services.